www.pogodaiklimat.ru

Погода и климат >> Архив погоды >> Египет >> Sallum Plateau


ПОГОДА в Sallum Plateau

  • Прогноз погоды в Sallum Plateau
  • Монитор погоды в Sallum Plateau
  • Климат города

АРХИВ ПОГОДЫ в Sallum Plateau

Время (UTC), дата Ветер
(напр.,м/с)
 
Видим.   Явления Облачность Т
(С)
Тd
(С)
f
(%)
Тe
(С)
Тes
(С)
Комфортность P
(гПа)
Po
(гПа)
Тmin
(С)
Tmax
(С)
R
(мм)
R24
(мм)
S
(см)
03 13.11 Ю 5 10 км ясно +15.3 +10.5 73 +14 +14 1010.0 1010.0
06 13.11 ЮЗ 6 10 км ясно +12.7 +7.7 72 +10 +10 1010.3 1010.0 +12.3
09 13.11 ЮЗ 7 10 км ясно +24.6 +4.9 28 +24 +26 комфорт 1010.0 1010.0
12 13.11 ЮЗ 11 10 км пыльный позёмок ясно +22.2 +4.2 31 +22 +22 комфорт 1008.0 1008.0
15 13.11 З 8 8000 м пыльный позёмок ясно +21.8 +5.9 36 +22 +22 комфорт 1008.9 1009.0
18 13.11 ЮЗ 6 10 км ясно +18.0 +6.3 46 +18 +18 1010.7 1011.0 +22.4
21 13.11 З 5 10 км ясно +17.3 +9.7 61 +17 +17 1011.5 1012.0
00 14.11 З 3 10 км ясно +14.2 +9.1 71 +13 +13 1012.5 1013.0
03 14.11 ЮЗ 4 10 км ясно +12.3 +8.7 79 +10 +10 1013.1 1013.0
06 14.11 ЮЗ 4 10 км ясно +12.4 +9.1 80 +10 +11 1014.6 1015.0 +11.7
09 14.11 ЮЗ 6 10 км ясно +20.5 +12.8 61 +23 +26 комфорт 1015.5 1016.0
12 14.11 ЮЗ 4 10 км ясно +23.6 +9.6 41 +25 +30 комфорт 1014.5 1015.0
15 14.11 0 {морось} н/о +50.1 1025.1 1025.0
18 14.11 0
{13}
{морось} н/о +50.1 1025.1 1025.0
21 14.11 ЮЗ 3 10 км ясно +17.2 +10.7 66 +17 +17 1016.4 1016.0
00 15.11 0 {туман} н/о 1013.2 1013.0
03 15.11 Ю 4 10 км ясно +15.3 +4.4 48 +14 +14 1015.9 1016.0
06 15.11 0 {метель} н/о +50.1 1024.9 1025.0
09 15.11 Ю 6 10 км ясно +22.9 +4.1 29 +23 +26 комфорт 1018.0 1018.0
12 15.11 Ю 4 10 км ясно +26.3 +2.8 22 +25 +29 комфорт 1016.3 1016.0
15 15.11 В 4 10 км ясно +22.3 +14.1 60 +26 +26 жарко 1016.3 1016.0
18 15.11 В 4 10 км ясно +20.6 +6.0 39 +22 +22 комфорт 1016.7 1017.0 +26.8
21 15.11 0 {метель} н/о 1023.7 1024.0
00 16.11 0 {метель} н/о 1023.5 1024.0
03 16.11 0 н/о +50.0 1023.3 1023.0
06 16.11 ЮВ 3 10 км ясно +16.6 +6.0 50 +16 +17 1017.1 1017.0 +15.0
09 16.11 ЮВ 3 10 км ясно +22.0 +8.0 41 +23 +29 комфорт 1017.8 1018.0
12 16.11 ЮВ 4 10 км ясно +24.9 +8.7 36 +25 +30 комфорт 1015.7 1016.0
15 16.11 СВ 4 10 км ясно +22.5 +16.0 67 +27 +27 душно 1015.5 1016.0
18 16.11 ЮВ 4 10 км ясно +20.2 +16.8 81 +23 +23 комфорт 1015.7 1016.0 +25.2
21 16.11 Ю 4 10 км ясно +12.2 +7.1 71 +11 +18 1016.2 1016.0
00 17.11 Ю 5 10 км ясно +16.2 +11.3 73 +15 +15 1015.7 1016.0
03 17.11 0 н/о +50.0 1028.1 1028.0
06 17.11 0 {метель} н/о 1028.9 1029.0
09 17.11 0 {туман} н/о +50.1 1029.1 1029.0
12 17.11 СВ 3 10 км ясно +21.2 +14.7 66 +24 +30 комфорт 1014.9 1015.0
15 17.11 СВ 4 10 км 5/0
[Ci]
+19.8 +15.2 75 +22 +22 комфорт 1014.6 1015.0
18 17.11 0 н/о +50.0 1028.9 1029.0
21 17.11 СЗ 1 10 км ясно +16.1 +13.8 86 +17 +17 1033.0 1033.2
00 18.11 0 н/о 1027.7 1028.0
03 18.11 З 2 10 км ясно +13.9 +13.5 97 +14 +14 1014.0 1014.0
06 18.11 0 н/о +50.0 1025.9 1026.0
09 18.11 0
{15}
{метель} н/о +40.1 1025.3 1025.0
12 18.11 З 5 10 км ясно +21.8 +5.8 35 +22 +26 комфорт 1014.1 1014.0
15 18.11 З 5 10 км ясно +21.1 +3.1 31 +21 +21 комфорт 1014.0 1014.0
18 18.11 0
{19}
{метель} н/о 1021.7 1022.0
21 18.11 ЮЗ 4 10 км ясно +14.4 +2.4 44 +13 +13 1015.2 1015.0
00 19.11 0
{13}
{метель} н/о 1021.1 1021.0
03 19.11 З 5 10 км ясно +12.6 +9.0 79 +10 +10 1013.4 1013.0
06 19.11 З 6 10 км ясно +12.5 +9.4 81 +10 +10 1015.0 1015.0 +11.7
09 19.11 0 {туман} н/о +17.6 +9.1 57 1023.9 1024.0
12 19.11 З 6 10 км ясно +22.4 +8.6 41 +24 +26 комфорт 1014.6 1015.0
15 19.11 СЗ 6 10 км ясно +21.7 +8.3 42 +23 +23 комфорт 1014.8 1015.0
18 19.11 СЗ 2 10 км ясно +16.5 +10.6 68 +17 +17 1015.9 1016.0 +22.7
21 19.11 ЮЗ 3 10 км ясно +14.5 +10.0 74 +14 +14 1016.6 1017.0
00 20.11 ЮЗ 4 10 км ясно +14.1 +8.3 68 +13 +13 1015.8 1016.0

 

Местоположение метеостанции Sallum Plateau (Египет): широта 31.57 долгота 25.13 высота над уровнем моря 6 м.

В архиве по умолчанию представлена погода в Sallum Plateau за последнюю неделю. Архивные данные за месяц целиком и за предыдущие месяцы, начиная с января 2011 года, Вы можете получить, выбрав интересующий диапазон дат из раскрывающегося списка и нажав кнопку "Ввод!".

Внимание! Время в таблицах - всемирное. Для получения местного времени необходимо прибавить поправку, которая в Sallum Plateau равна 2 ч.

Смотрите также архив погоды в соседних городах и на ближайших метеорологических станциях:

Погода в Mersa Matruh (Египет) (200 км)
Погода в Siwa (Египет) (264 км)
Погода в Dabaa (Египет) (325 км)
Погода в Kasteli (Греция) (402 км)
Погода в Sitia (Греция) (414 км)
Погода в Heraklion (Греция) (418 км)
Погода в Jalo (Ливия) (443 км)
Погода в Souda (Греция) (445 км)
Погода в Alexandria (Египет) (459 км)
Погода в Bingazi (Ливия) (463 км)

Пояснения к столбцам:

Ветер - указаны скорость ветра в м/с - средняя за 10 мин, порывы в срок и между сроками (в фигурных скобках) и направление, откуда дует ветер: С - северный, СВ - северо-восточный, В - восточный, ЮВ - юго-восточный, Ю - южный, ЮЗ - юго-западный, З - западный, СЗ - северо-западный.
Видимость - горизонтальная дальность видимости в метрах или километрах. При видимости от 1 до 10 км при отсутствии осадков обычно наблюдается дымка, при ухудшении видимости до 1 км и менее - туман. В сухую погоду видимость может ухудшаться дымом, пылью или мглою.
Явления - указаны атмосферные явления, наблюдавшиеся в срок или в последний час перед сроком; фигурными скобками обозначены явления, наблюдавшиеся между сроками (за 1-3 часа до срока); квадратными скобками обозначены град или гололедные отложения с указанием их диаметра в мм.
Облачность - указаны через наклонную черту общая и нижняя облачность в баллах и высота нижней границы облаков в метрах; квадратными скобками обозначены формы облаков: Ci - перистые, Cs - перисто-слоистые, Cc - перисто-кучевые, Ac - высококучевые, As - высокослоистые, Sc - слоисто-кучевые, Ns - слоисто-дождевые, Cu - кучевые, Cb - кучево-дождевые. Подробнее классификацию облаков см. в Атласе облаков (PDF).
T - Температура воздуха - температура, измеренная на высоте 2 м над землей.
Td - Температура точки росы - температура, при понижении до которой содержащийся в воздухе водяной пар достигнет насыщения.
f - Относительная влажность воздуха - влажноcть воздуха, измеренная на высоте 2 м над землей.
Te - Эффективная температура - температура, которую ощущает одетый по сезону человек в тени. Характеристика душности погоды. При расчете учитывается влияние влажности воздуха и скорости ветра на теплоощущения человека.
Tes - Эффективная температура на солнце - температура, которую ощущает человек, с поправкой на солнечный нагрев. Характеристика знойности погоды. Зависит от высоты солнца над горизонтом, облачности и скорости ветра. Ночью, в пасмурную погоду, а также при ветре 12 м/с и более поправка равна нулю.
P - Атмосферное давление - приведенное к уровню моря атмосферное давление.
Po - Атмосферное давление - измеренное на уровне метеостанции атмосферное давление.
Tmin - Минимальная температура - минимум температуры воздуха на высоте 2 м над землей.
Tmax - Максимальная температура - максимум температуры воздуха на высоте 2 м над землей.
R - Количество осадков - Количество выпавших осадков за период времени, мм. При наведении курсора мыши на число - период времени, за который выпало указанное количество осадков.
R24 - Количество осадков - Количество выпавших осадков за 24 часа, мм.
S - Снежный покров - Высота снежного покрова, см. При наведении курсора мыши на число - состояние снежного покрова и степень покрытия местности в баллах.